PulseSat

PulseSat

GORIZONT 22 [-]

Last updated on Dec. 17, 2018, 12:08 a.m. UTC

1 20953U 90102A   18350.84983352 -.00000279  00000-0  00000+0 0  9998
2 20953  14.8901 359.8682 0007981 304.9449 227.5743  1.00277974102935
UTC
Height (km)
Latitude
Longitude
Inclination
Orbital Period

Next 30 passes for location: Hong Kong

Rise time Rise Azimuth (degrees) Set time Set Azimuth (degrees) Duration Max altitude (degrees)

No matching passes for this satellites

PulseSat

PulseSat is the new satellites software and hardware trackering solution by Pulsely.
Satellite Two Line Element Set source: US Air Force Space Command

Download PulseSat for iOS
© 2017 Pulsely Limited